Weather History for Moffett NAS, CA

Change the Weather History Date:

Sunday, September 16, 2012

  Actual Average Record
Temperature  
Mean Temperature 65 °F 68 °F  
Max Temperature 73 °F 78 °F 93 °F (1968)
Min Temperature 56 °F 58 °F 47 °F (1948)
Degree Days  
Heating Degree Days 0    
Month to date heating degree days 6  
Since 1 July heating degree days 23  
Cooling Degree Days 0    
Month to date cooling degree days 12  
Year to date cooling degree days 246  
Growing Degree Days 14 (Base 50)    
Moisture  
Dew Point 53 °F    
Average Humidity 73    
Maximum Humidity 93    
Minimum Humidity 53    
Precipitation  
Precipitation 0.00 in 0.01 in 0.39 in (1989)
Month to date precipitation T 0.06  
Year to date precipitation 5.51 9.72  
Since 1 July precipitation T 0.09  
Sea Level Pressure  
Sea Level Pressure 30.04 in    
Wind  
Wind Speed 6 mph (NNW)    
Max Wind Speed 14 mph    
Max Gust Speed 17 mph    
Visibility 10 miles    
Events      
T = Trace of Precipitation, MM = Missing Value Source: NWS Daily Summary

Daily Weather History Graph

Daily Weather History Graph

Search for Another Location

Airport:

Trip Planner

Search our weather history database for the weather conditions in past years. The results will help you decide how hot, cold, wet, or windy it might be!

Date:

Astronomy

Sep. 16, 2012 Rise Set
Actual Time 6:51 AM PDT 7:13 PM PDT
Civil Twilight 6:25 AM PDT 7:39 PM PDT
Nautical Twilight 5:54 AM PDT 8:10 PM PDT
Astronomical Twilight 5:23 AM PDT 8:41 PM PDT
Moon 7:34 AM PDT (9/16) 7:24 PM PDT (9/16)
Length of Visible Light 13h 14m
Length of Day
12h 21m
New Moon, 1% of the Moon is Illuminated
Sep 16
New Moon
Sep 22
First Quarter
Sep 29
Full
Oct 8
Last Quarter
Oct 15
New

Hourly Weather History & Observations

Time (PDT) Temp. Dew Point Humidity Pressure Visibility Wind Dir Wind Speed Gust Speed Precip Events Conditions
12:56 AM 59.0 °F 53.1 °F 81% 30.04 in 10.0 mi Calm Calm - N/A   Clear
1:56 AM 57.0 °F 53.1 °F 87% 30.04 in 10.0 mi WNW 4.6 mph - N/A   Clear
2:56 AM 57.0 °F 52.0 °F 83% 30.04 in 10.0 mi WNW 3.5 mph - N/A   Clear
3:14 AM 55.4 °F 51.8 °F 88% 30.03 in 10.0 mi West 3.5 mph - N/A   Scattered Clouds
3:23 AM 55.4 °F 51.8 °F 88% 30.04 in 10.0 mi WNW 3.5 mph - N/A   Mostly Cloudy
3:56 AM 55.9 °F 52.0 °F 87% 30.04 in 10.0 mi Calm Calm - N/A   Overcast
4:56 AM 55.9 °F 52.0 °F 87% 30.04 in 10.0 mi Calm Calm - N/A   Overcast
5:56 AM 57.0 °F 53.1 °F 87% 30.04 in 10.0 mi Calm Calm - N/A   Overcast
6:56 AM 55.9 °F 53.1 °F 90% 30.05 in 9.0 mi NW 3.5 mph - N/A   Overcast
7:56 AM 55.9 °F 52.0 °F 87% 30.07 in 10.0 mi West 4.6 mph - N/A   Overcast
8:56 AM 57.0 °F 53.1 °F 87% 30.07 in 9.0 mi West 4.6 mph - N/A   Overcast
9:42 AM 57.2 °F 53.6 °F 88% 30.07 in 9.0 mi Calm Calm - N/A   Overcast
9:56 AM 57.9 °F 53.1 °F 84% 30.08 in 10.0 mi Calm Calm - N/A   Overcast
10:48 AM 60.8 °F 53.6 °F 77% 30.07 in 10.0 mi North 4.6 mph - N/A   Scattered Clouds
10:56 AM 62.1 °F 53.1 °F 72% 30.07 in 10.0 mi North 4.6 mph - N/A   Partly Cloudy
11:56 AM 64.0 °F 54.0 °F 70% 30.06 in 10.0 mi North 9.2 mph - N/A   Clear
12:56 PM 66.9 °F 53.1 °F 61% 30.05 in 10.0 mi NNW 9.2 mph - N/A   Scattered Clouds
1:56 PM 69.1 °F 52.0 °F 54% 30.03 in 10.0 mi North 10.4 mph - N/A   Clear
2:56 PM 71.1 °F 53.1 °F 53% 30.01 in 10.0 mi NNW 8.1 mph - N/A   Clear
3:56 PM 72.0 °F 54.0 °F 53% 29.99 in 10.0 mi NNW 9.2 mph - N/A   Clear
4:56 PM 70.0 °F 55.0 °F 59% 29.98 in 10.0 mi NNW 9.2 mph - N/A   Clear
5:56 PM 66.9 °F 55.0 °F 66% 29.99 in 10.0 mi NNW 12.7 mph - N/A   Clear
6:56 PM 63.0 °F 54.0 °F 72% 30.00 in 10.0 mi NNW 10.4 mph - N/A   Clear
7:56 PM 60.1 °F 54.0 °F 80% 30.01 in 10.0 mi NNW 8.1 mph - N/A   Clear
8:56 PM 60.1 °F 54.0 °F 80% 30.02 in 10.0 mi NNW 8.1 mph - N/A   Clear
9:56 PM 59.0 °F 53.1 °F 81% 30.03 in 10.0 mi NNW 6.9 mph - N/A   Clear
10:56 PM 57.9 °F 53.1 °F 84% 30.03 in 10.0 mi North 4.6 mph - N/A   Clear
11:56 PM 57.0 °F 52.0 °F 83% 30.03 in 10.0 mi North 3.5 mph - N/A   Partly Cloudy